ONEWEB-0096 (45439 NORAD) Tracking and Keplerian Element Data

This shows tracking and keplerian element data for the satellite.

Feedback or suggestion? Click here.




ElementValue
Catalog45439
NameONEWEB-0096
Epoch Orbit190
Epoch Day94.25001157
Epoch Year2020
RAAN134.4739
Inclination87.4002
Eccentricity0.0021297
Argument of Perigee252.9386
Mean Anonmoly325.2721
Mean Motion15.36671841
Decay Rate-0.00064959
L11 45439U 20020R 20094.25001157 -.00064959 00000-0 -18209-2 0 9992
L22 45439 87.4002 134.4739 0021297 252.9386 325.2721 15.36671841 1909

Live tracking and technical data element details for ONEWEB-0096 (NORAD 45439). ONEWEB-0096 can be tracked NOW for your location showing map with azimuth and elevation plus other details from your city location.

Track the satellite on the map from your city or location and see movement details for azimuth, elevation, latitude, longitude, range, height, and movement on the map or in text.







IsCatalogInMostPopularTable: catalog: 45439, numindb: 4
Update: records affected: 1



GetName: 45439 ONEWEB-0096

Hit Count: updated at: Mon, 06 Apr 2020 11:43:12 GMT